TimeCST,TemperatureF,Dew PointF,Humidity,Sea Level PressureIn,VisibilityMPH,Wind Direction,Wind SpeedMPH,Gust SpeedMPH,PrecipitationIn,Events,Conditions,WindDirDegrees,DateUTC
12:55 AM,44.6,19.6,37,29.95,10.0,South,6.9,-,N/A,,Clear,190,2012-12-23 06:55:00
1:55 AM,44.6,21.2,39,29.94,10.0,South,6.9,-,N/A,,Clear,180,2012-12-23 07:55:00
2:55 AM,44.1,21.4,41,29.93,10.0,South,4.6,-,N/A,,Clear,190,2012-12-23 08:55:00
3:55 AM,43.5,23.0,44,29.92,10.0,South,4.6,-,N/A,,Clear,180,2012-12-23 09:55:00
4:55 AM,43.9,24.8,47,29.92,10.0,South,5.8,-,N/A,,Scattered Clouds,190,2012-12-23 10:55:00
5:55 AM,43.7,26.1,50,29.93,10.0,Calm,Calm,-,N/A,,Scattered Clouds,0,2012-12-23 11:55:00
6:55 AM,36.1,26.6,68,29.94,10.0,Calm,Calm,-,N/A,,Mostly Cloudy,0,2012-12-23 12:55:00
7:55 AM,36.5,26.8,68,29.94,10.0,SSE,4.6,-,N/A,,Clear,150,2012-12-23 13:55:00
8:55 AM,41.2,30.2,65,29.94,10.0,Calm,Calm,-,N/A,,Clear,0,2012-12-23 14:55:00
9:55 AM,51.3,32.5,49,29.94,10.0,South,4.6,-,N/A,,Clear,190,2012-12-23 15:55:00
10:55 AM,55.6,39.4,55,29.92,10.0,Variable,4.6,-,N/A,,Clear,0,2012-12-23 16:55:00
11:55 AM,56.5,40.8,56,29.89,10.0,Variable,6.9,-,N/A,,Clear,0,2012-12-23 17:55:00
12:55 PM,58.1,42.6,56,29.83,10.0,Calm,Calm,-,N/A,,Clear,0,2012-12-23 18:55:00
1:55 PM,59.2,42.6,54,29.82,10.0,Calm,Calm,-,N/A,,Clear,0,2012-12-23 19:55:00
2:55 PM,60.4,42.3,51,29.82,10.0,Variable,3.5,-,N/A,,Clear,0,2012-12-23 20:55:00
3:55 PM,59.0,42.8,55,29.82,10.0,Variable,3.5,-,N/A,,Overcast,0,2012-12-23 21:55:00
4:55 PM,54.3,42.8,65,29.83,10.0,North,4.6,-,N/A,,Partly Cloudy,360,2012-12-23 22:55:00
5:55 PM,51.3,38.7,62,29.83,10.0,North,8.1,-,N/A,,Mostly Cloudy,360,2012-12-23 23:55:00
6:55 PM,48.0,36.9,65,29.86,10.0,North,6.9,-,N/A,,Partly Cloudy,360,2012-12-24 00:55:00
7:55 PM,45.7,35.1,66,29.87,10.0,NNW,5.8,-,N/A,,Scattered Clouds,340,2012-12-24 01:55:00
8:55 PM,43.3,32.9,67,29.84,10.0,NNE,5.8,-,N/A,,Clear,20,2012-12-24 02:55:00
9:55 PM,41.4,32.4,70,29.84,10.0,North,3.5,-,N/A,,Scattered Clouds,360,2012-12-24 03:55:00
10:55 PM,40.5,32.5,73,29.84,10.0,NNW,5.8,-,N/A,,Mostly Cloudy,330,2012-12-24 04:55:00
11:55 PM,39.0,31.8,75,29.84,10.0,NNW,6.9,-,N/A,,Mostly Cloudy,330,2012-12-24 05:55:00